View from above orbital plane
|
View from above satellite
|
Ground track
|
The orbit data is extracted from the following two-line orbital elements,
1 00045U 60007A 21059.46506891 -.00000064 00000-0 10842-4 0 9998
2 00045 66.6939 66.2134 0249587 130.3661 231.9526 14.33707534102533
Epoch (UTC): | 28 February 2021 11:09:41 |
Eccentricity: | 0.0249587 |
inclination: | 66.6939° |
perigee height: | 601 km |
apogee height: | 958 km |
right ascension of ascending node: | 66.2134° |
argument of perigee: | 130.3661° |
revolutions per day: | 14.33707534 |
mean anomaly at epoch: | 231.9526° |
orbit number at epoch: | 10253 |
The dashed part of the orbit path shows where the satellite is in the earth's shadow,
|
|